Theta_e
287 288 288 287 288 288 285 284 282 284 285 288 289 290 292 293 292 292 292 293 291 290 288 288 289 290 290 290 290 290 290 290 290 289 288 287 287 288 287 287 287 287 287 287
284 288 288 286 288 288 288 287 285 286 286 289 290 289 290 291 292 291 291 291 291 290 290 290 289 289 290 290 290 290 289 290 290 288 288 287 287 287 286 286 286 286 286 286
281 288 288 285 288 288 288 288 288 284 287 289 288 290 290 290 291 291 290 290 289 289 290 290 290 291 290 290 290 289 289 289 288 287 288 287 287 286 286 285 285 284 284 285
281 284 278 287 290 290 290 291 290 290 290 291 290 289 289 289 290 289 289 289 289 289 289 290 290 290 290 290 289 289 289 288 287 287 287 287 286 286 285 285 284 283 284 286
280 280 285 287 288 287 288 287 292 291 291 291 290 289 287 290 290 288 288 289 289 289 290 289 289 290 289 289 289 289 288 287 287 287 287 286 286 285 285 283 283 284 286 286
281 278 277 284 289 291 286 279 290 292 291 290 290 283 285 288 289 289 290 290 290 290 290 289 290 289 288 288 288 288 288 288 288 287 287 286 286 285 283 284 285 286 286 287
281 278 283 289 289 290 278 280 290 292 290 290 288 287 288 289 289 290 290 290 290 289 289 289 289 289 288 288 287 289 289 288 288 287 286 286 285 283 284 284 284 284 286 288
280 278 279 290 289 283 285 289 291 290 290 290 288 289 289 289 289 290 290 291 290 289 289 290 290 288 288 287 290 289 289 288 287 286 287 288 283 283 283 282 283 285 287 288
284 284 290 290 287 289 292 291 290 291 290 290 289 288 289 288 289 289 289 289 290 289 289 289 289 288 288 289 290 289 287 286 286 286 286 285 283 283 282 284 284 287 288 288
285 287 289 291 291 292 293 292 292 292 291 290 288 289 288 288 288 288 289 289 290 289 289 288 289 290 289 289 290 288 286 285 285 285 287 284 284 284 283 284 287 288 289 287
284 287 287 291 291 293 293 294 292 292 291 289 289 288 288 288 288 289 289 290 290 289 288 289 290 290 290 290 289 287 286 285 285 286 284 283 283 284 286 287 291 288 288 289
285 288 288 287 291 293 292 292 291 290 289 289 289 289 289 288 289 289 289 289 289 289 289 289 289 289 290 290 289 287 286 285 285 284 283 283 283 285 290 292 293 293 293 291
289 288 290 290 292 292 292 291 290 290 290 289 289 290 289 289 290 292 289 289 289 289 289 289 289 290 290 290 288 287 285 286 285 285 283 283 284 284 284 288 291 292 292 292
290 291 289 290 291 292 292 292 293 290 290 290 290 290 290 289 289 289 288 289 289 289 289 290 290 289 290 289 288 287 286 291 284 283 283 284 284 285 286 286 283 285 289 290
290 289 290 291 291 291 291 290 288 288 289 289 290 289 289 288 288 288 290 290 290 289 290 290 289 289 291 290 288 287 286 285 285 284 284 286 285 285 287 285 284 285 285 287
289 289 290 290 289 288 288 287 287 287 288 288 289 288 288 288 289 289 289 290 288 287 289 289 291 291 292 289 287 286 285 289 288 283 283 283 284 286 284 284 284 284 284 285
288 287 287 286 287 286 286 288 288 288 288 288 287 288 289 288 288 288 289 289 289 289 289 289 289 291 290 287 286 287 284 284 288 282 283 283 285 284 283 284 283 283 284 286
289 291 291 291 288 287 287 288 288 288 287 288 288 288 288 287 286 287 288 288 289 289 289 289 291 290 288 288 290 287 283 283 283 285 285 284 286 284 284 284 284 284 284 285
290 290 289 290 289 288 287 287 288 288 289 289 288 288 288 287 287 286 287 287 287 286 287 291 292 289 288 292 289 284 283 283 283 285 285 286 284 284 283 284 284 284 284 285
289 290 290 289 289 288 288 288 289 289 289 289 288 287 285 286 286 286 285 286 288 291 292 292 289 288 288 288 289 283 283 282 282 284 284 283 284 284 284 285 285 284 284 285
289 290 289 289 288 289 289 289 289 288 289 289 287 285 285 285 286 285 284 285 288 293 292 291 290 289 288 286 284 283 282 281 281 282 281 283 283 283 284 284 284 284 284 285
289 289 288 288 288 287 288 289 289 289 288 287 287 286 285 285 285 284 286 287 292 293 291 290 291 291 288 287 283 282 282 282 281 281 282 283 283 283 284 284 284 284 285 285
289 288 288 288 288 287 288 288 288 289 287 286 286 286 285 284 284 282 281 290 292 292 291 291 291 291 289 282 282 282 281 281 281 281 283 284 284 284 284 285 284 284 284 284
287 288 287 288 288 288 286 287 288 288 287 287 287 287 285 282 283 285 291 292 293 292 291 290 290 289 287 281 281 281 281 280 281 281 282 285 284 285 285 285 284 285 284 284
288 287 287 287 287 286 287 287 287 286 286 285 285 285 286 288 284 289 290 291 292 290 288 289 288 287 282 281 281 280 280 280 281 282 282 283 284 284 285 286 285 285 284 284
288 288 288 288 287 287 287 287 284 284 284 282 283 285 287 288 291 290 290 290 289 288 285 283 283 282 281 281 281 281 280 280 281 281 282 282 284 284 284 285 285 285 285 285
288 290 288 287 287 288 287 286 284 283 284 282 282 284 287 290 291 290 290 288 287 285 282 282 282 283 282 281 280 280 280 279 282 282 282 283 284 284 285 285 285 286 286 285
Wind_Speed
4 3 2 2 3 6 5 4 6 4 7 7 9 12 15 11 8 8 7 8 7 6 5 4 4 4 4 4 4 2 3 1 2 3 3 3 3 4 5 5 6 6 6 6
3 3 2 3 3 3 3 3 2 4 5 2 4 6 6 9 11 8 7 7 6 6 6 4 3 2 2 2 2 2 2 3 4 3 3 3 4 5 5 6 7 7 7 7
4 4 4 6 6 6 4 4 7 7 8 3 2 6 8 9 8 8 9 7 7 6 4 2 1 3 4 4 2 1 2 4 4 4 3 5 5 6 7 7 6 7 7 7
3 4 2 4 1 1 4 3 4 6 6 5 5 4 6 2 7 9 8 7 6 4 2 1 1 2 1 3 3 2 4 4 5 4 5 5 6 6 6 4 6 6 7 8
3 3 6 2 2 3 4 4 6 8 6 5 6 4 6 5 6 7 7 6 5 4 3 1 2 2 1 3 4 4 6 6 5 4 5 6 6 7 6 4 4 5 8 9
2 3 5 4 2 0 2 5 6 8 8 9 6 3 5 5 6 7 7 6 5 3 2 2 3 2 2 5 5 7 6 6 5 5 5 6 6 6 3 3 6 6 9 8
2 2 9 6 3 1 5 10 5 6 6 8 6 4 6 8 5 6 6 6 4 3 2 3 4 2 4 4 6 7 6 4 4 5 6 6 4 2 3 6 6 6 8 9
2 1 8 6 3 6 7 1 3 4 4 5 7 9 9 8 8 7 7 5 4 2 4 5 4 2 5 5 6 5 4 3 4 5 5 4 2 4 6 6 6 7 9 9
10 8 6 7 4 4 5 4 2 6 4 9 10 7 8 7 7 6 5 3 2 3 4 6 5 2 4 5 5 4 2 4 4 6 5 3 3 6 5 5 5 8 8 9
4 4 7 6 3 3 5 5 5 5 8 8 9 8 7 7 6 4 3 1 1 2 4 5 5 4 5 6 5 2 3 4 5 5 5 4 4 4 4 5 7 8 8 10
5 7 6 7 7 6 4 6 8 7 6 8 9 7 7 5 5 3 2 2 1 2 3 5 5 6 6 5 3 3 3 4 4 3 4 4 4 5 5 5 8 9 8 8
8 8 5 5 6 9 8 7 9 9 6 5 7 8 6 5 3 2 2 2 2 2 3 5 5 5 5 4 1 1 3 4 4 2 4 4 4 6 12 15 18 18 22 16
5 4 4 3 6 5 7 8 7 9 9 9 5 7 6 4 3 2 0 1 3 4 4 4 4 4 5 3 1 2 3 4 2 4 4 4 6 6 8 9 17 18 20 20
5 8 4 3 5 7 10 8 10 8 7 7 6 4 4 3 1 3 3 4 4 3 4 4 4 6 4 2 2 3 3 9 2 4 4 4 5 6 6 6 9 8 13 17
9 2 5 7 8 8 7 8 9 7 6 5 4 5 4 4 2 2 2 3 4 3 4 5 4 5 2 2 3 4 4 4 4 3 4 6 5 6 6 8 8 9 8 12
5 6 8 9 10 9 9 8 9 7 6 4 6 5 5 4 4 3 4 4 3 4 6 5 4 3 4 4 4 4 4 10 6 3 4 5 5 5 7 7 8 7 8 9
10 6 6 6 10 8 8 7 8 7 6 7 6 6 5 4 5 5 5 5 3 4 3 4 3 3 3 3 2 2 3 4 8 4 4 5 6 5 6 7 8 8 8 9
4 8 9 14 12 9 8 7 7 8 6 7 7 6 6 6 3 4 5 5 5 5 6 4 3 3 2 2 2 3 3 3 3 5 6 6 6 5 7 8 8 8 8 10
7 11 10 11 10 9 8 8 7 8 7 7 7 6 5 5 4 3 4 5 5 5 5 4 6 5 5 7 5 3 4 4 5 4 6 9 7 8 8 7 8 8 9 9
8 9 10 9 9 8 9 7 8 8 6 7 7 6 6 5 4 5 4 1 1 1 1 3 4 4 4 5 7 3 4 4 4 5 5 6 7 7 7 11 10 9 9 9
11 12 12 11 9 9 10 8 9 7 6 6 7 6 5 3 3 3 4 4 5 4 4 5 2 2 2 4 4 3 4 4 4 5 5 6 7 8 8 9 8 8 9 8
11 12 12 12 12 8 7 7 8 7 7 6 6 5 5 4 2 3 2 1 3 8 4 1 2 6 4 7 3 4 4 4 4 4 5 6 6 8 8 9 8 9 8 9
10 11 12 12 11 9 7 7 7 7 7 6 6 4 3 2 1 1 3 4 2 6 2 3 6 9 9 4 3 4 4 4 4 5 6 6 6 8 8 8 9 9 8 9
11 10 8 8 10 9 8 4 6 6 6 5 4 3 4 3 2 2 2 3 6 6 3 4 7 8 7 3 4 4 4 4 4 4 5 10 7 8 9 8 9 8 9 11
11 9 9 10 9 5 7 6 6 5 6 5 4 2 4 2 3 1 2 3 8 4 4 8 8 9 4 4 4 4 4 4 5 4 5 6 7 8 9 9 8 9 9 9
12 9 7 8 7 6 5 5 4 4 4 4 3 2 3 3 3 2 3 4 3 5 4 3 2 4 4 4 4 5 4 5 5 5 7 7 8 9 9 10 10 10 10 9
8 11 7 6 4 5 5 5 5 4 4 4 4 1 3 3 3 3 5 2 3 3 3 3 3 4 4 4 4 4 4 4 8 6 6 7 9 8 9 9 10 9 10 10
Wind_Direction
247 252 211 233 216 180 171 183 160 236 186 211 200 183 191 176 173 176 173 156 155 154 148 124 105 94 85 76 83 92 96 54 298 296 303 303 306 310 302 293 286 280 280 275
274 309 1 300 283 212 206 196 167 187 231 241 183 96 145 178 187 185 159 144 146 136 127 117 114 129 132 136 111 81 20 309 286 298 305 320 314 304 299 291 286 281 282 281
267 335 4 312 233 194 201 193 160 191 224 159 72 185 187 191 183 164 146 137 130 124 114 108 166 196 205 188 178 208 317 301 307 305 305 306 297 293 287 285 276 285 282 277
213 11 254 252 311 3 220 271 125 102 148 163 149 77 38 96 151 129 123 131 121 114 125 200 300 285 217 200 233 277 286 289 293 271 287 291 292 289 285 281 294 292 286 275
124 206 290 277 226 186 176 239 198 155 152 138 130 76 11 40 76 123 129 131 147 173 171 165 12 341 263 277 273 265 269 276 261 264 280 287 293 293 298 295 303 281 283 285
101 128 224 241 214 95 76 291 200 171 171 157 147 132 233 145 122 118 128 142 144 132 104 37 327 333 275 286 299 279 276 266 256 266 276 294 291 302 276 287 279 287 294 288
160 232 287 243 199 52 93 239 183 172 154 155 182 187 148 133 118 132 147 154 137 113 135 256 279 294 292 289 277 262 262 253 272 288 296 290 303 286 290 297 292 290 294 290
87 114 286 164 88 167 220 29 102 100 137 120 115 115 121 131 137 146 158 151 147 172 253 273 279 263 279 287 282 300 285 284 298 305 308 322 304 302 304 294 292 297 295 298
175 213 237 215 198 204 155 138 133 117 116 131 129 134 137 133 151 171 176 189 200 234 292 288 291 264 282 272 307 299 287 302 303 312 315 320 306 306 302 295 291 300 295 294
70 261 235 235 226 174 168 146 134 127 135 138 136 141 136 146 164 158 180 217 222 277 305 305 317 298 258 286 288 289 302 305 308 314 323 330 310 293 292 297 304 301 309 306
266 283 295 255 203 175 134 114 108 105 131 140 131 136 142 158 155 158 179 223 266 311 302 297 307 300 302 300 302 294 294 307 315 320 337 313 294 294 298 279 298 316 314 309
228 214 177 232 186 161 148 147 142 127 113 111 127 145 147 147 157 174 234 290 316 299 287 296 311 311 319 315 309 309 318 326 326 349 311 300 300 308 314 318 316 315 323 321
231 178 172 85 112 123 127 137 131 129 129 134 149 146 138 143 195 158 117 258 271 282 286 298 313 311 310 319 88 355 331 317 326 332 307 303 314 309 311 315 323 316 320 326
167 119 63 190 172 140 125 134 127 122 133 141 141 116 124 147 108 57 338 300 293 294 298 305 311 314 322 58 23 357 347 338 308 297 296 306 302 304 309 313 321 319 319 322
175 286 166 117 103 110 118 122 125 138 136 130 132 140 126 110 70 0 340 347 338 330 317 319 328 351 38 44 20 10 350 324 311 328 317 325 313 310 312 323 316 317 317 320
128 116 119 126 133 132 130 129 132 150 143 120 127 120 112 112 89 29 0 8 17 325 311 342 60 25 32 42 37 7 347 345 355 335 314 312 314 323 322 318 319 320 316 316
117 122 122 131 147 147 155 149 147 146 134 128 132 113 103 82 62 27 3 348 356 342 53 58 37 28 65 76 56 0 344 328 344 333 314 315 308 315 312 318 319 314 316 317
137 154 155 151 152 146 143 141 128 132 134 136 116 105 86 72 59 15 351 339 14 58 28 18 23 48 15 330 21 17 356 334 322 340 330 319 333 323 325 325 315 314 311 310
148 139 135 138 143 137 132 126 128 122 125 124 112 103 102 82 70 32 6 30 40 41 354 4 48 37 18 4 46 15 357 342 323 339 332 338 336 336 333 320 316 313 313 315
115 121 128 123 121 124 122 121 123 118 123 112 111 99 84 70 58 35 33 64 277 16 348 52 45 20 359 6 30 14 4 347 336 324 341 346 335 332 324 325 324 320 319 319
129 131 128 128 118 116 127 133 126 118 120 117 113 117 118 97 65 23 8 8 328 30 44 80 27 322 1 45 30 11 357 343 337 331 330 337 335 332 323 320 321 325 323 321
129 127 126 122 123 117 124 121 114 118 118 111 110 118 101 75 41 351 323 330 339 62 60 331 347 10 47 41 17 8 354 345 336 327 341 340 334 326 323 324 330 331 324 327
125 125 124 128 134 131 115 112 119 128 129 129 134 139 119 129 186 52 342 330 15 93 41 356 13 50 40 31 16 3 350 342 334 328 344 334 328 319 317 332 336 329 331 329
121 126 118 115 117 115 118 132 128 128 126 133 144 146 130 105 20 345 320 2 106 77 44 28 41 40 42 16 14 360 343 337 325 325 320 338 335 327 326 339 332 331 335 329
128 121 124 130 131 132 130 135 119 115 108 98 89 104 129 112 130 61 32 52 78 72 45 35 39 40 23 15 8 355 340 332 329 339 327 330 336 334 331 333 331 335 335 330
134 138 140 139 141 139 139 132 129 131 120 108 64 99 106 86 102 99 93 84 60 72 64 21 24 33 17 7 6 350 340 339 344 334 339 326 338 342 337 336 335 335 331 332
111 119 114 102 108 131 134 137 129 133 135 141 132 171 122 98 114 118 95 74 61 77 62 25 12 26 20 12 357 346 340 339 349 342 329 329 342 343 338 336 333 334 336 336